Printer-friendly version

IAU Minor Planet Center

Minor Planet Center

MPEC 2006-O12 : 2006 OE2

The following Minor Planet Electronic Circular may be linked-to from your own Web pages, but must not otherwise be redistributed electronically.


Read MPEC 2006-O11 Read MPEC 2006-O13


M.P.E.C. 2006-O12                                Issued 2006 July 21, 16:59 UT

     The Minor Planet Electronic Circulars contain information on unusual
         minor planets and routine data on comets.  They are published
   on behalf of Commission 20 of the International Astronomical Union by the
          Minor Planet Center, Smithsonian Astrophysical Observatory,
                          Cambridge, MA 02138, U.S.A.

                  Supported in part by the Brinson Foundation
                  Supported in part by the TABASGO Foundation
             Prepared using the Tamkin Foundation Computer Network

                              MPC@CFA.HARVARD.EDU
          URL http://cfa-www.harvard.edu/iau/mpc.html  ISSN 1523-6714

                                   2006 OE2

Observations:
     K06O02E* C2006 07 20.59971 20 24 13.39 -30 21 19.7          19.4 V EO012E12
     K06O02E  C2006 07 20.60995 20 24 12.16 -30 21 52.2          19.5 V EO012E12
     K06O02E  C2006 07 20.62000 20 24 10.94 -30 22 24.8          19.5 V EO012E12
     K06O02E  C2006 07 20.62994 20 24 09.90 -30 22 57.0          19.0 V EO012E12
     K06O02E  C2006 07 20.63979 20 24 08.71 -30 23 28.2          19.3 V EO012E12
     K06O02E  C2006 07 20.66446 20 24 05.90 -30 24 46.5          19.1 V EO012E12
     K06O02E  C2006 07 20.66510 20 24 05.79 -30 24 49.1          19.2 V EO012E12
     K06O02E  C2006 07 20.66663 20 24 05.65 -30 24 53.9          18.9 V EO012E12
     K06O02E  C2006 07 20.67624 20 24 04.53 -30 25 24.4          19.4 V EO012E12
     K06O02E  C2006 07 20.68378 20 24 03.60 -30 25 48.7          19.3 V EO012E12
     K06O02E  C2006 07 20.69134 20 24 02.77 -30 26 13.0          18.9 V EO012E12
     K06O02E  C2006 07 20.72168 20 23 59.42 -30 27 49.1          19.4 V EO012E12
     K06O02E  C2006 07 20.73484 20 23 57.83 -30 28 31.8          19.7 V EO012E12
     K06O02E  C2006 07 20.74801 20 23 56.33 -30 29 13.8                 EO012E12
     K06O02E  C2006 07 20.76127 20 23 54.65 -30 29 55.6                 EO012E12
     K06O02E  C2006 07 21.13985 20 23 13.55 -30 50 10.1          18.5 R EO012I77
     K06O02E  C2006 07 21.14793 20 23 12.62 -30 50 35.6          18.9 R EO012I77
     K06O02E  C2006 07 21.15601 20 23 11.69 -30 51 01.1          18.9 R EO012I77
     K06O02E  C2006 07 21.21556 20 23 05.59 -30 54 20.0          19.1 R EO012734
     K06O02E  C2006 07 21.22172 20 23 04.79 -30 54 39.3          19.6 R EO012734
     K06O02E  C2006 07 21.22787 20 23 04.20 -30 54 59.2          20.1 R EO012734
     K06O02E  C2006 07 21.28620 20 22 57.77 -30 58 04.0          19.2 R EO012854
     K06O02E  C2006 07 21.29100 20 22 57.04 -30 58 19.6          19.2 R EO012854
     K06O02E  C2006 07 21.29581 20 22 56.43 -30 58 35.4          19.0 R EO012854
     K06O02E  C2006 07 21.33370 20 22 52.03 -31 00 35.3          19.3 V EO012G96
     K06O02E  C2006 07 21.33494 20 22 51.88 -31 00 39.0          19.2 V EO012G96
     K06O02E  C2006 07 21.33618 20 22 51.74 -31 00 42.9          19.4 V EO012G96
     K06O02E  C2006 07 21.33741 20 22 51.56 -31 00 46.9          19.6 V EO012G96

Observer details:
734 Farpoint Observatory.  Observer D. Tibbets.  0.7-m reflector + CCD.
854 Sabino Canyon Observatory, Tucson.  Observer J. E. McGaha.  0.36-m f/10.0
    Schmidt-Cassegrain + CCD.
E12 Siding Spring Survey.  Observer G. J. Garradd.  Measurers E. C. Beshore,
    E. J. Christensen, G. J. Garradd, A. R. Gibbs, A. D. Grauer, R. E. Hill,
    R. A. Kowalski, S. M. Larson, R. H. McNaught.  0.5-m Uppsala Schmidt + CCD.
G96 Mt. Lemmon Survey.  Observer E. J. Christensen.  Measurers E. C. Beshore,
    E. J. Christensen, G. J. Garradd, A. R. Gibbs, A. D. Grauer, R. E. Hill,
    R. A. Kowalski, S. M. Larson, R. H. McNaught.  1.5-m reflector + CCD.
I77 CEAMIG-REA Observatory, Belo Horizonte.  Observers C. Jacques, E. Pimentel.
    Measurer C. Jacques.  0.30-m f/3.0 Schmidt-Cassegrain + CCD.

Orbital elements:
2006 OE2
Epoch 2006 Sept. 22.0 TT = JDT 2454000.5                MPC
M  74.07096              (2000.0)            P               Q
n   0.38053532     Peri.  108.16689     -0.51307288     +0.60218921
a   1.8859901      Node   114.34328     -0.78067990     -0.62359026
e   0.2643592      Incl.   42.17095     +0.35678442     -0.49850110
P   2.59           H   18.7           G   0.15           U   9
Residuals in seconds of arc
060720 E12  0.2+  0.2-    060720 E12  0.1-  0.1-    060721 734  0.9+  0.2+
060720 E12  0.3-  0.2+    060720 E12  1.7+  0.5+    060721 854  2.4+  0.2+
060720 E12  1.1-  0.1-    060720 E12  0.6+  0.3-    060721 854  0.2+  0.1-
060720 E12  0.4+  0.4-    060720 E12  0.7+  0.5-    060721 854  0.4-  0.6-
060720 E12  0.3-  0.1-    060720 E12  1.6-  0.2-    060721 G96  0.2-  0.1-
060720 E12  0.3+  0.6+    060721 I77  0.9-  0.3-    060721 G96  0.3-  0.1+
060720 E12  0.2-  0.0     060721 I77  0.7-  0.1-    060721 G96  0.2-  0.1+
060720 E12  0.3+  0.1+    060721 I77  0.5-  0.1+    060721 G96  0.7-  0.0
060720 E12  0.2+  0.3+    060721 734  0.5+  0.1+
060720 E12  0.6-  0.1+    060721 734  0.6-  0.4+

Ephemeris:
2006 OE2                 a,e,i = 1.89, 0.26, 42                  q = 1.3874
Date    TT    R. A. (2000) Decl.     Delta      r     Elong.  Phase     V
2006 07 14    20 35.72   -24 11.9    0.638    1.641   165.2     9.1    19.4
2006 07 24    20 17.87   -33 17.7    0.670    1.675   166.6     8.1    19.5
2006 08 03    19 59.08   -40 36.4    0.737    1.709   154.4    14.9    20.0
2006 08 13    19 42.91   -45 45.6    0.831    1.743   141.8    21.1    20.5
2006 08 23    19 31.98   -49 04.3    0.944    1.778   130.7    25.5    21.0
2006 09 02    19 27.51   -51 02.7    1.071    1.812   121.2    28.5    21.4
2006 09 12    19 29.34   -52 06.8    1.205    1.846   112.8    30.2    21.7
2006 09 22    19 36.58   -52 33.5    1.343    1.879   105.4    31.0    22.0

Kyle E. Smalley              (C) Copyright 2006 MPC           M.P.E.C. 2006-O12

Read MPEC 2006-O11 Read MPEC 2006-O13


Our Web policy. Index to the CBAT/MPC/ICQ pages.


Valid HTML 4.01!